SQ2CET-13 Weather Reports


time (UTC)temp
C
wind
direction
speed
KPH
gust
KPH
rain 1hr
cm
rain 24hr
cm
rain mn
cm
humidity
%
barometer
mb
20260505231050 7 16 0.0 1.6 0.00 0.00 0.00 94 1012.0
20260505230215 6 0.0 0.0 0.00 0.00 0.00 94 1012.1
20260505225035 7 0.0 1.6 0.00 0.00 0.00 94 1012.2
20260505224058 7 0.0 0.0 0.00 0.00 0.00 94 1012.0
20260505223017 7 0.0 0.0 0.00 0.00 0.00 94 1012.0
20260505222041 7 0.0 0.0 0.00 0.00 0.00 94 1011.9
20260505221058 7 0.0 0.0 0.00 0.00 0.00 94 1012.0
20260505220018 7 0.0 0.0 0.00 0.00 0.00 94 1012.0
20260505215034 8 0.0 3.2 0.00 0.00 0.00 94 1012.0
20260505214119 8 0.0 0.0 0.00 0.00 0.00 94 1012.0
20260505213117 8 0.0 1.6 0.00 0.00 0.00 94 1012.0
20260505212034 8 0.0 1.6 0.00 0.00 0.00 94 1012.1
20260505211050 8 0.0 0.0 0.00 0.00 0.00 94 1011.9
20260505210116 8 0.0 1.6 0.00 0.00 0.00 94 1012.1
20260505205034 8 0.0 3.2 0.00 0.00 0.00 94 1012.1
20260505204100 8 0.0 0.0 0.00 0.00 0.00 94 1012.1
20260505203021 8 34 0.0 3.2 0.00 0.00 0.00 94 1012.1
20260505202043 8 278 1.6 3.2 0.00 0.00 0.00 94 1012.1
20260505201107 8 0.0 0.0 0.00 0.00 0.00 93 1011.9
20260505200027 8 0.0 0.0 0.00 0.00 0.00 93 1011.9
20260505195051 8 0.0 1.6 0.00 0.00 0.00 93 1011.8
20260505194114 8 0.0 0.0 0.00 0.00 0.00 93 1011.9
20260505193026 8 0.0 1.6 0.00 0.00 0.00 93 1011.8
20260505192052 9 220 0.0 3.2 0.00 0.00 0.00 92 1011.8
20260505191113 9 87 0.0 3.2 0.00 0.00 0.00 92 1011.7
20260505190036 9 0.0 0.0 0.00 0.00 0.00 92 1011.9
20260505185058 9 26 0.0 1.6 0.00 0.00 0.00 91 1011.9
20260505184039 9 0.0 1.6 0.00 0.00 0.00 91 1011.8
20260505183043 10 30 0.0 3.2 0.00 0.00 0.00 90 1011.8
20260505182108 10 0.0 0.0 0.00 0.00 0.00 90 1011.8
20260505181108 10 0.0 1.6 0.00 0.00 0.00 90 1011.8
20260505180027 10 119 0.0 3.2 0.00 0.00 0.00 90 1011.7
20260505175051 10 0.0 3.2 0.00 0.00 0.00 90 1011.7
20260505174115 10 24 1.6 3.2 0.00 0.00 0.00 89 1011.7
20260505173034 10 83 1.6 4.8 0.00 0.00 0.00 88 1011.8
20260505172055 10 162 0.0 3.2 0.00 0.00 0.00 87 1011.8
20260505171128 10 124 1.6 4.8 0.00 0.00 0.00 87 1011.8
20260505170049 10 106 1.6 4.8 0.00 0.00 0.00 87 1011.9
20260505165052 11 0.0 4.8 0.00 0.00 0.00 89 1011.8
20260505164108 10 15 1.6 4.8 0.00 0.00 0.00 91 1011.9
20260505163039 10 107 1.6 6.4 0.00 0.00 0.00 91 1012.0
20260505162027 10 68 1.6 6.4 0.00 0.00 0.00 92 1011.8
20260505161112 10 169 1.6 4.8 0.00 0.00 0.00 92 1011.9
20260505160121 10 216 0.0 4.8 0.00 0.00 0.00 92 1012.0
20260505153155 10 128 1.6 4.8 0.00 0.00 0.00 91 1011.9
20260505152029 10 64 1.6 4.8 0.00 0.00 0.00 90 1012.1
20260505151043 11 0.0 3.2 0.00 0.00 0.00 89 1012.2
20260505150106 10 0.0 4.8 0.00 0.00 0.00 88 1012.2
20260505140116 12 0.0 4.8 0.00 0.00 0.00 81 1012.3
20260505130113 12 62 1.6 4.8 0.00 0.00 0.00 79 1012.7
20260505125027 12 56 0.0 3.2 0.00 0.00 0.00 79 1012.9
20260505124052 12 33 1.6 4.8 0.00 0.00 0.00 76 1013.0
20260505123115 13 0.0 3.2 0.00 0.00 0.00 76 1012.9
20260505122036 13 0.0 4.8 0.00 0.00 0.00 76 1012.9
20260505121059 13 91 3.2 6.4 0.00 0.00 0.00 75 1012.6
20260505120019 13 206 1.6 8.0 0.00 0.00 0.00 76 1012.7
20260505115043 13 40 3.2 8.0 0.00 0.00 0.00 75 1012.6
20260505114109 13 52 1.6 6.4 0.00 0.00 0.00 72 1012.5
20260505113106 13 268 1.6 8.0 0.00 0.00 0.00 71 1012.5
20260505112052 15 49 1.6 6.4 0.00 0.00 0.00 68 1012.3
20260505111115 15 36 1.6 8.0 0.00 0.00 0.00 61 1012.2
20260505102044 17 347 1.6 4.8 0.00 0.00 0.00 44 1012.1
20260505101114 17 237 1.6 6.4 0.00 0.00 0.00 46 1012.3
20260505100028 17 228 1.6 6.4 0.00 0.00 0.00 44 1012.2
20260505095052 18 320 1.6 8.0 0.00 0.00 0.00 43 1012.3
20260505094114 18 339 1.6 4.8 0.00 0.00 0.00 42 1012.4
20260505093034 17 328 3.2 8.0 0.00 0.00 0.00 45 1012.5
20260505092059 17 294 1.6 4.8 0.00 0.00 0.00 43 1012.6
20260505091115 18 356 0.0 4.8 0.00 0.00 0.00 42 1012.5
20260505090020 17 258 0.0 4.8 0.00 0.00 0.00 44 1012.5
20260505085035 17 4 1.6 4.8 0.00 0.00 0.00 44 1012.6
20260505084058 18 306 0.0 4.8 0.00 0.00 0.00 42 1012.6
20260505083018 17 39 0.0 1.6 0.00 0.00 0.00 43 1012.6
20260505082043 16 1 1.6 4.8 0.00 0.00 0.00 45 1012.7
20260505081044 16 265 1.6 8.0 0.00 0.00 0.00 48 1012.8
20260505080046 16 231 1.6 4.8 0.00 0.00 0.00 49 1012.8
20260505075107 15 0.0 4.8 0.00 0.00 0.00 54 1012.8
20260505074107 14 208 1.6 4.8 0.00 0.00 0.00 56 1012.7
20260505073029 15 297 1.6 4.8 0.00 0.00 0.00 54 1012.7
20260505072053 13 227 0.0 6.4 0.00 0.00 0.00 57 1012.8
20260505071129 15 215 1.6 4.8 0.00 0.00 0.00 54 1012.8
20260505070027 15 263 1.6 3.2 0.00 0.00 0.00 55 1012.7
20260505065034 15 0.0 1.6 0.00 0.00 0.00 56 1012.7
20260505064051 14 0.0 3.2 0.00 0.00 0.00 59 1012.7
20260505063119 15 0.0 4.8 0.00 0.00 0.00 60 1012.9
20260505062035 13 72 1.6 3.2 0.00 0.00 0.00 66 1013.0
20260505061051 12 238 1.6 4.8 0.00 0.00 0.00 69 1013.1
20260505060114 12 233 1.6 4.8 0.00 0.00 0.00 71 1013.1
20260505055035 11 221 1.6 6.4 0.00 0.00 0.00 74 1013.1
20260505054100 11 265 1.6 6.4 0.00 0.00 0.00 74 1013.2
20260505053021 11 242 1.6 6.4 0.00 0.00 0.00 77 1012.9
20260505052035 10 228 1.6 6.4 0.00 0.00 0.00 78 1012.9
20260505051118 10 224 1.6 8.0 0.00 0.00 0.00 80 1012.8
20260505041114 8 173 1.6 4.8 0.00 0.00 0.00 87 1012.9
20260505040034 9 57 0.0 3.2 0.00 0.00 0.00 89 1013.1
20260505035058 8 40 1.6 3.2 0.00 0.00 0.00 90 1013.1
20260505034019 7 44 1.6 4.8 0.00 0.00 0.00 91 1013.0
20260505033038 7 8 0.0 3.2 0.00 0.00 0.00 91 1013.1
20260505032058 7 339 0.0 3.2 0.00 0.00 0.00 91 1013.1
20260505031018 7 224 1.6 3.2 0.00 0.00 0.00 92 1013.1
20260505030044 7 197 1.6 4.8 0.00 0.00 0.00 92 1013.1
20260505025106 7 210 1.6 4.8 0.00 0.00 0.00 92 1013.1
20260505024026 7 197 1.6 4.8 0.00 0.00 0.00 92 1013.1
20260505023050 7 209 3.2 8.0 0.00 0.00 0.00 92 1013.1
20260505022114 7 0.0 3.2 0.00 0.00 0.00 92 1013.1
20260505021034 7 0.0 1.6 0.00 0.00 0.00 91 1013.1
20260505020058 7 173 0.0 4.8 0.00 0.00 0.00 91 1013.1
20260505015100 7 200 3.2 8.0 0.00 0.00 0.00 91 1013.1
20260505014103 7 211 4.8 11.3 0.00 0.00 0.00 92 1013.1
20260505013106 7 220 6.4 9.7 0.00 0.00 0.00 92 1013.2
20260505012026 7 213 4.8 8.0 0.00 0.00 0.00 91 1013.1
20260505011051 7 229 4.8 9.7 0.00 0.00 0.00 91 1012.9
20260505010134 7 220 8.0 9.7 0.00 0.00 0.00 91 1013.0
20260505005047 8 216 4.8 8.0 0.00 0.00 0.00 90 1013.1
20260505004050 8 237 3.2 8.0 0.00 0.00 0.00 89 1013.0
20260505003135 8 245 3.2 8.0 0.00 0.00 0.00 90 1013.0
20260505002054 8 231 6.4 11.3 0.00 0.00 0.00 90 1013.0
20260505001058 8 225 4.8 11.3 0.00 0.00 0.00 91 1013.1
20260505000018 8 230 4.8 8.0 0.00 0.00 0.00 90 1013.2
20260504235043 8 225 4.8 9.7 0.00 0.00 0.00 91 1013.2
20260504234107 8 228 4.8 8.0 0.00 0.00 0.00 91 1013.3
20260504233027 8 225 4.8 9.7 0.00 0.00 0.00 91 1013.4
20260504232052 8 225 4.8 8.0 0.00 0.00 0.00 91 1013.3
20260504231115 9 227 4.8 8.0 0.00 0.00 0.00 91 1013.5